EW7966 Weather Reports


Display with metric or nautical units.
time (UTC)temp
F
wind
direction
speed
MPH
gust
MPH
rain 1hr
in
rain 24hr
in
rain mn
in
humidity
%
barometer
mb
20260902222505 81 113 14.0 20.0 0.00 0.00 0.00 30 1016.2
20260902222006 80 110 8.0 14.0 0.00 0.00 0.00 30 1016.3
20260902221506 80 65 11.0 14.0 0.00 0.00 0.00 30 1016.3
20260902221503 80 65 10.0 14.0 0.00 0.00 0.00 30 1000.4
20260902221004 79 75 9.0 14.0 0.00 0.00 0.00 31 1016.4
20260902220503 80 88 9.0 19.0 0.00 0.00 0.00 30 1016.5
20260902220006 81 126 12.0 19.0 0.00 0.00 0.00 27 1000.7
20260902215505 82 110 12.0 16.0 0.00 0.00 0.00 29 1016.5
20260902215006 81 62 9.0 15.0 0.00 0.00 0.00 29 1016.6
20260902214506 80 67 10.0 15.0 0.00 0.00 0.00 30 1016.7
20260902214502 80 67 10.0 15.0 0.00 0.00 0.00 30 1000.9
20260902214007 79 65 8.0 14.0 0.00 0.00 0.00 31 1016.8
20260902213504 79 80 9.0 18.0 0.00 0.00 0.00 30 1016.9
20260902213006 80 122 9.0 18.0 0.00 0.00 0.00 29 1016.9
20260902213004 80 122 9.0 18.0 0.00 0.00 0.00 29 1001.2
20260902212505 80 87 5.0 16.0 0.00 0.00 0.00 28 1016.9
20260902212005 80 126 7.0 16.0 0.00 0.00 0.00 30 1017.0
20260902211505 80 111 10.0 14.0 0.00 0.00 0.00 31 1001.4
20260902211001 79 86 9.0 13.0 0.00 0.00 0.00 32 1017.4
20260902210504 79 91 9.0 13.0 0.00 0.00 0.00 29 1017.4
20260902210006 79 75 7.0 13.0 0.00 0.00 0.00 31 1017.5
20260902205503 78 88 9.0 13.0 0.00 0.00 0.00 32 1017.6
20260902204505 77 85 5.0 13.0 0.00 0.00 0.00 32 1017.8
20260902204502 77 85 4.0 13.0 0.00 0.00 0.00 32 1002.0
20260902204005 77 109 5.0 13.0 0.00 0.00 0.00 32 1017.8
20260902203504 78 94 9.0 13.0 0.00 0.00 0.00 32 1017.9
20260902203003 78 94 7.0 14.0 0.00 0.00 0.00 30 1002.2
20260902202506 78 111 8.0 14.0 0.00 0.00 0.00 30 1018.0
20260902202005 78 82 7.0 12.0 0.00 0.00 0.00 31 1018.0
20260902201504 78 77 8.0 13.0 0.00 0.00 0.00 31 1018.0
20260902201502 78 77 7.0 13.0 0.00 0.00 0.00 31 1002.3
20260902200006 78 67 9.0 14.0 0.00 0.00 0.00 31 1018.2
20260902195503 78 77 7.0 14.0 0.00 0.00 0.00 29 1018.3
20260902195005 79 84 8.0 13.0 0.00 0.00 0.00 31 1018.2
20260902194504 79 40 4.0 11.0 0.00 0.00 0.00 29 1018.3
20260902194502 79 40 4.0 11.0 0.00 0.00 0.00 29 1002.6
20260902193505 79 119 6.0 13.0 0.00 0.00 0.00 29 1018.4
20260902193005 79 82 8.0 12.0 0.00 0.00 0.00 31 1018.3
20260902193002 79 82 8.0 12.0 0.00 0.00 0.00 31 1002.7
20260902192005 79 66 7.0 15.0 0.00 0.00 0.00 30 1018.5
20260902191504 79 42 7.0 13.0 0.00 0.00 0.00 31 1018.5
20260902191006 79 38 7.0 12.0 0.00 0.00 0.00 31 1018.7
20260902190504 79 86 7.0 12.0 0.00 0.00 0.00 31 1018.8
20260902190007 79 103 6.0 12.0 0.00 0.00 0.00 30 1018.9
20260902190003 79 103 6.0 12.0 0.00 0.00 0.00 30 1003.5
20260902185005 79 90 8.0 11.0 0.00 0.00 0.00 30 1019.1
20260902184602 79 40 5.0 14.0 0.00 0.00 0.00 29 1003.8
20260902184507 79 20 6.0 14.0 0.00 0.00 0.00 30 1003.8
20260902184505 79 20 7.0 14.0 0.00 0.00 0.00 30 1019.1
20260902184005 78 59 10.0 14.0 0.00 0.00 0.00 31 1019.2
20260902183504 78 74 2.0 8.0 0.00 0.00 0.00 31 1019.3
20260902183006 77 122 3.0 10.0 0.00 0.00 0.00 31 1019.4
20260902183003 77 122 3.0 10.0 0.00 0.00 0.00 31 1004.1
20260902182504 77 89 7.0 11.0 0.00 0.00 0.00 32 1019.4
20260902182005 78 87 8.0 11.0 0.00 0.00 0.00 31 1019.6
20260902181505 77 101 2.0 8.0 0.00 0.00 0.00 30 1019.7
20260902181502 77 101 1.0 8.0 0.00 0.00 0.00 30 1004.3
20260902181006 77 113 4.0 5.0 0.00 0.00 0.00 32 1019.7
20260902180504 77 127 2.0 11.0 0.00 0.00 0.00 30 1019.7
20260902180007 77 103 4.0 14.0 0.00 0.00 0.00 30 1019.8
20260902180005 77 103 3.0 14.0 0.00 0.00 0.00 30 1004.5
20260902175006 77 24 4.0 9.0 0.00 0.00 0.00 31 1019.9
20260902174502 77 14 4.0 10.0 0.00 0.00 0.00 32 1004.7
20260902174005 77 19 6.0 10.0 0.00 0.00 0.00 32 1020.1
20260902173006 76 75 4.0 8.0 0.00 0.00 0.00 35 1020.2
20260902173002 76 75 3.0 8.0 0.00 0.00 0.00 35 1004.9
20260902172504 76 78 3.0 8.0 0.00 0.00 0.00 35 1020.2
20260902172005 76 155 2.0 6.0 0.00 0.00 0.00 35 1020.2
20260902171504 76 88 4.0 10.0 0.00 0.00 0.00 34 1020.3
20260902171502 76 88 3.0 10.0 0.00 0.00 0.00 34 1005.0
20260902171000 76 136 7.0 10.0 0.00 0.00 0.00 34 1020.4
20260902170504 76 170 5.0 7.0 0.00 0.00 0.00 33 1020.4
20260902170006 76 15 1.0 6.0 0.00 0.00 0.00 33 1020.5
20260902170003 76 15 1.0 6.0 0.00 0.00 0.00 33 1005.2
20260902165505 75 48 4.0 8.0 0.00 0.00 0.00 34 1020.5
20260902165005 75 37 5.0 8.0 0.00 0.00 0.00 34 1020.4
20260902164504 76 69 4.0 8.0 0.00 0.00 0.00 34 1020.5
20260902164006 75 5 1.0 4.0 0.00 0.00 0.00 35 1020.5
20260902163503 75 360 2.0 5.0 0.00 0.00 0.00 35 1020.5
20260902163005 74 53 1.0 6.0 0.00 0.00 0.00 34 1020.5
20260902163002 74 53 1.0 6.0 0.00 0.00 0.00 34 1005.2
20260902162504 74 42 4.0 8.0 0.00 0.00 0.00 34 1020.5
20260902162005 74 50 5.0 8.0 0.00 0.00 0.00 35 1020.4
20260902161502 74 130 3.0 7.0 0.00 0.00 0.00 37 1005.2
20260902160503 74 43 3.0 10.0 0.00 0.00 0.00 36 1020.5
20260902160008 74 38 6.0 10.0 0.00 0.00 0.00 36 1020.5
20260902160004 74 38 5.0 10.0 0.00 0.00 0.00 36 1005.4
20260902155505 74 28 2.0 5.0 0.00 0.00 0.00 34 1020.5
20260902155005 74 327 1.0 4.0 0.00 0.00 0.00 35 1020.6
20260902154505 74 314 1.0 4.0 0.00 0.00 0.00 35 1005.6
20260902154005 74 34 2.0 3.0 0.00 0.00 0.00 37 1020.7
20260902153503 73 34 1.0 5.0 0.00 0.00 0.00 35 1020.8
20260902153005 73 34 2.0 5.0 0.00 0.00 0.00 36 1020.7
20260902153002 73 34 1.0 5.0 0.00 0.00 0.00 36 1005.7
20260902152505 73 17 2.0 5.0 0.00 0.00 0.00 35 1020.7
20260902152005 73 17 2.0 6.0 0.00 0.00 0.00 36 1020.7
20260902151504 73 17 3.0 6.0 0.00 0.00 0.00 37 1005.6
20260902151005 73 23 3.0 4.0 0.00 0.00 0.00 37 1020.7
20260902150505 73 23 2.0 3.0 0.00 0.00 0.00 39 1020.7
20260902150007 72 23 2.0 4.0 0.00 0.00 0.00 38 1020.6
20260902150002 72 23 1.0 4.0 0.00 0.00 0.00 38 1005.7
20260902145505 72 23 2.0 4.0 0.00 0.00 0.00 38 1020.5
20260902144506 71 23 1.0 3.0 0.00 0.00 0.00 44 1005.5
20260902144005 70 292 1.0 3.0 0.00 0.00 0.00 42 1020.5
20260902143504 69 257 1.0 2.0 0.00 0.00 0.00 46 1020.5
20260902143008 68 217 1.0 2.0 0.00 0.00 0.00 46 1020.5
20260902143005 68 217 1.0 2.0 0.00 0.00 0.00 46 1005.5
20260902142505 67 217 1.0 2.0 0.00 0.00 0.00 49 1020.5
20260902142005 67 217 1.0 2.0 0.00 0.00 0.00 51 1020.4
20260902141505 66 217 2.0 3.0 0.00 0.00 0.00 52 1020.4
20260902141503 66 217 1.0 3.0 0.00 0.00 0.00 52 1005.4
20260902141007 66 217 2.0 3.0 0.00 0.00 0.00 53 1020.4
20260902140504 66 217 1.0 2.0 0.00 0.00 0.00 54 1020.4
20260902140007 65 217 2.0 3.0 0.00 0.00 0.00 57 1020.3
20260902140003 65 217 1.0 3.0 0.00 0.00 0.00 57 1005.4
20260902135505 64 217 2.0 3.0 0.00 0.00 0.00 61 1020.4
20260902135005 63 217 0.0 0.0 0.00 0.00 0.00 61 1020.3
20260902134504 61 217 0.0 2.0 0.00 0.00 0.00 64 1005.4
20260902134005 60 217 1.0 2.0 0.00 0.00 0.00 65 1020.2
20260902133003 57 217 0.0 1.0 0.00 0.00 0.00 69 1005.3
20260902132504 57 217 0.0 3.0 0.00 0.00 0.00 70 1020.1
20260902132006 56 217 2.0 3.0 0.00 0.00 0.00 71 1020.0
20260902131503 55 202 2.0 3.0 0.00 0.00 0.00 73 1020.0
20260902131006 54 202 0.0 2.0 0.00 0.00 0.00 75 1019.9
20260902130505 53 202 1.0 2.0 0.00 0.00 0.00 75 1019.9
20260902130008 53 202 0.0 1.0 0.00 0.00 0.00 75 1019.8
20260902130002 53 202 0.0 1.0 0.00 0.00 0.00 75 1004.8
20260902125504 53 165 0.0 1.0 0.00 0.00 0.00 75 1019.8
20260902125005 53 161 0.0 2.0 0.00 0.00 0.00 74 1019.8
20260902124504 53 161 1.0 5.0 0.00 0.00 0.00 74 1019.7
20260902124502 53 161 0.0 5.0 0.00 0.00 0.00 74 1004.8
20260902124004 53 161 3.0 5.0 0.00 0.00 0.00 75 1019.6
20260902123505 53 161 2.0 2.0 0.00 0.00 0.00 75 1019.6
20260902123006 54 161 1.0 2.0 0.00 0.00 0.00 72 1019.5
20260902123002 54 161 1.0 2.0 0.00 0.00 0.00 72 1004.5
20260902122505 54 161 0.0 3.0 0.00 0.00 0.00 71 1019.4
20260902122004 55 161 1.0 5.0 0.00 0.00 0.00 71 1019.4
20260902121505 55 161 4.0 6.0 0.00 0.00 0.00 70 1019.4
20260902121502 55 161 4.0 6.0 0.00 0.00 0.00 70 1004.4
20260902121005 56 161 4.0 6.0 0.00 0.00 0.00 70 1019.2
20260902120504 55 161 3.0 5.0 0.00 0.00 0.00 70 1019.2
20260902120006 56 161 3.0 3.0 0.00 0.00 0.00 71 1019.2
20260902120002 56 161 2.0 3.0 0.00 0.00 0.00 71 1004.3
20260902115503 56 161 1.0 5.0 0.00 0.00 0.00 69 1019.1
20260902115005 56 161 1.0 5.0 0.00 0.00 0.00 69 1019.1
20260902114506 56 161 2.0 5.0 0.00 0.00 0.00 69 1004.1
20260902114006 56 161 2.0 4.0 0.00 0.00 0.00 70 1019.0
20260902113504 56 161 2.0 4.0 0.00 0.00 0.00 70 1019.0
20260902113105 56 161 1.0 5.0 0.00 0.00 0.00 70 1004.0
20260902113000 56 161 2.0 5.0 0.00 0.00 0.00 70 1018.9
20260902112505 56 161 3.0 5.0 0.00 0.00 0.00 70 1018.9
20260902111504 57 161 2.0 5.0 0.00 0.00 0.00 68 1019.0
20260902111501 57 161 1.0 5.0 0.00 0.00 0.00 68 1004.0
20260902110959 57 161 3.0 5.0 0.00 0.00 0.00 69 1019.0
20260902110503 57 161 2.0 5.0 0.00 0.00 0.00 69 1019.0
20260902110008 57 161 2.0 5.0 0.00 0.00 0.00 69 1018.9
20260902104504 57 161 1.0 4.0 0.00 0.00 0.00 70 1018.9
20260902104004 57 161 1.0 3.0 0.00 0.00 0.00 70 1018.9
20260902103504 57 161 2.0 3.0 0.00 0.00 0.00 71 1018.8
20260902103005 56 161 1.0 5.0 0.00 0.00 0.00 71 1018.8
20260902103002 56 161 1.0 5.0 0.00 0.00 0.00 71 1003.7
20260902102004 56 161 1.0 5.0 0.00 0.00 0.00 72 1018.8
20260902101503 56 161 2.0 5.0 0.00 0.00 0.00 72 1018.8
20260902100504 57 161 0.0 2.0 0.00 0.00 0.00 72 1018.9
20260902100006 57 161 0.0 3.0 0.00 0.00 0.00 71 1018.9
20260902100002 57 161 0.0 3.0 0.00 0.00 0.00 71 1003.8
20260902095504 57 161 0.0 3.0 0.00 0.00 0.00 72 1018.9
20260902095005 57 161 2.0 5.0 0.00 0.00 0.00 72 1018.8
20260902094505 57 161 1.0 3.0 0.00 0.00 0.00 72 1018.8
20260902094503 57 161 1.0 3.0 0.00 0.00 0.00 72 1003.6
20260902094004 58 161 1.0 3.0 0.00 0.00 0.00 71 1018.8
20260902093503 58 161 2.0 5.0 0.00 0.00 0.00 70 1018.8
20260902093006 58 161 3.0 5.0 0.00 0.00 0.00 70 1018.8
20260902093002 58 161 2.0 5.0 0.00 0.00 0.00 70 1003.6
20260902092504 59 161 3.0 5.0 0.00 0.00 0.00 69 1018.8
20260902091503 59 161 3.0 5.0 0.00 0.00 0.00 69 1018.7
20260902091006 58 161 4.0 5.0 0.00 0.00 0.00 70 1018.7
20260902090504 58 161 3.0 3.0 0.00 0.00 0.00 71 1018.8
20260902090006 58 161 2.0 4.0 0.00 0.00 0.00 71 1018.8
20260902090002 58 161 1.0 4.0 0.00 0.00 0.00 71 1003.7
20260902085503 58 161 2.0 3.0 0.00 0.00 0.00 72 1018.8
20260902085005 58 161 1.0 3.0 0.00 0.00 0.00 73 1018.8
20260902084602 59 161 2.0 3.0 0.00 0.00 0.00 71 1003.7
20260902084500 59 161 2.0 4.0 0.00 0.00 0.00 71 1018.8
20260902084005 59 161 0.0 6.0 0.00 0.00 0.00 72 1018.8
20260902083503 59 161 5.0 6.0 0.00 0.00 0.00 72 1018.8
20260902083001 59 161 3.0 5.0 0.00 0.00 0.00 72 1003.7
20260902082503 59 161 2.0 5.0 0.00 0.00 0.00 71 1018.8
20260902082005 59 161 3.0 4.0 0.00 0.00 0.00 72 1018.8
20260902081504 59 161 1.0 5.0 0.00 0.00 0.00 72 1018.8
20260902081005 59 161 2.0 5.0 0.00 0.00 0.00 72 1018.9
20260902080503 59 161 3.0 5.0 0.00 0.00 0.00 72 1018.9
20260902080007 59 161 2.0 3.0 0.00 0.00 0.00 72 1019.0
20260902080002 59 161 1.0 3.0 0.00 0.00 0.00 72 1003.9
20260902075504 59 161 2.0 2.0 0.00 0.00 0.00 71 1019.0
20260902075005 60 161 1.0 3.0 0.00 0.00 0.00 71 1019.1
20260902074503 59 161 2.0 3.0 0.00 0.00 0.00 72 1019.1
20260902074004 59 161 2.0 3.0 0.00 0.00 0.00 73 1019.2
20260902073503 59 161 2.0 4.0 0.00 0.00 0.00 73 1019.2
20260902073005 60 161 2.0 5.0 0.00 0.00 0.00 72 1019.2
20260902073002 60 161 1.0 5.0 0.00 0.00 0.00 72 1004.0
20260902072504 60 161 1.0 5.0 0.00 0.00 0.00 71 1019.1
20260902072005 61 161 1.0 6.0 0.00 0.00 0.00 71 1019.1
20260902071508 60 161 2.0 8.0 0.00 0.00 0.00 71 1004.0
20260902071504 60 161 2.0 8.0 0.00 0.00 0.00 71 1019.2
20260902071004 60 158 6.0 8.0 0.00 0.00 0.00 71 1019.3
20260902070504 61 180 2.0 5.0 0.00 0.00 0.00 70 1019.2
20260902070007 61 180 1.0 9.0 0.00 0.00 0.00 68 1019.1
20260902070003 61 180 1.0 9.0 0.00 0.00 0.00 68 1004.0
20260902065004 62 188 5.0 7.0 0.00 0.00 0.00 68 1019.3
20260902064505 62 175 4.0 6.0 0.00 0.00 0.00 68 1019.3
20260902064503 62 175 3.0 6.0 0.00 0.00 0.00 68 1004.1
20260902064004 62 151 3.0 6.0 0.00 0.00 0.00 68 1019.1
20260902063504 62 209 3.0 4.0 0.00 0.00 0.00 69 1019.0
20260902063005 62 209 2.0 3.0 0.00 0.00 0.00 68 1018.9
20260902063002 62 209 1.0 3.0 0.00 0.00 0.00 68 1003.8
20260902062504 62 209 1.0 4.0 0.00 0.00 0.00 67 1019.0
20260902062005 62 209 2.0 5.0 0.00 0.00 0.00 67 1018.9
20260902061503 63 198 2.0 7.0 0.00 0.00 0.00 67 1019.0
20260902060504 63 215 4.0 8.0 0.00 0.00 0.00 67 1018.8
20260902060003 63 239 2.0 8.0 0.00 0.00 0.00 67 1003.8
20260902055504 63 245 2.0 7.0 0.00 0.00 0.00 66 1019.0
20260902055006 64 244 2.0 4.0 0.00 0.00 0.00 64 1019.1
20260902054505 64 244 2.0 7.0 0.00 0.00 0.00 63 1019.0
20260902054502 64 244 2.0 7.0 0.00 0.00 0.00 63 1003.8
20260902054004 64 189 3.0 7.0 0.00 0.00 0.00 63 1019.0
20260902053504 64 211 4.0 7.0 0.00 0.00 0.00 63 1019.1
20260902053005 65 180 3.0 9.0 0.00 0.00 0.00 62 1019.0
20260902053003 65 180 3.0 9.0 0.00 0.00 0.00 62 1003.9
20260902052006 66 181 4.0 10.0 0.00 0.00 0.00 61 1018.8
20260902051505 66 209 5.0 10.0 0.00 0.00 0.00 61 1018.8
20260902051502 66 209 4.0 10.0 0.00 0.00 0.00 61 1003.7
20260902051007 66 193 5.0 10.0 0.00 0.00 0.00 61 1018.8
20260902050505 66 180 6.0 12.0 0.00 0.00 0.00 60 1018.8
20260902050009 66 199 5.0 12.0 0.00 0.00 0.00 60 1003.8
20260902044504 67 183 8.0 14.0 0.00 0.00 0.00 59 1019.0
20260902044502 67 183 8.0 14.0 0.00 0.00 0.00 59 1004.0
20260902044006 67 171 8.0 14.0 0.00 0.00 0.00 59 1019.1
20260902043007 67 171 8.0 14.0 0.00 0.00 0.00 59 1004.4
20260902042506 67 183 9.0 12.0 0.00 0.00 0.00 59 1019.3
20260902042006 66 157 7.0 9.0 0.00 0.00 0.00 58 1019.4
20260902041505 66 158 6.0 10.0 0.00 0.00 0.00 58 1019.4
20260902041502 66 158 6.0 10.0 0.00 0.00 0.00 58 1004.6
20260902041006 66 178 6.0 9.0 0.00 0.00 0.00 57 1019.4
20260902040006 66 146 6.0 9.0 0.00 0.00 0.00 57 1019.5
20260902040003 66 146 5.0 9.0 0.00 0.00 0.00 57 1004.8
20260902035504 66 157 7.0 9.0 0.00 0.00 0.00 57 1019.4
20260902035005 67 179 6.0 8.0 0.00 0.00 0.00 57 1019.5
20260902034603 67 183 5.0 9.0 0.00 0.00 0.00 57 1004.7
20260902034501 67 161 5.0 9.0 0.00 0.00 0.00 57 1019.4
20260902033505 67 188 6.0 8.0 0.00 0.00 0.00 56 1019.4
20260902033004 67 144 4.0 9.0 0.00 0.00 0.00 56 1004.6
20260902032505 67 177 6.0 10.0 0.00 0.00 0.00 56 1019.3
20260902032006 68 185 7.0 10.0 0.00 0.00 0.00 55 1019.4
20260902031505 67 180 7.0 10.0 0.00 0.00 0.00 56 1019.4
20260902031503 67 180 7.0 10.0 0.00 0.00 0.00 56 1004.7
20260902031007 67 155 6.0 10.0 0.00 0.00 0.00 56 1019.3
20260902030003 67 169 5.0 8.0 0.00 0.00 0.00 55 1004.6
20260902025504 67 172 5.0 8.0 0.00 0.00 0.00 55 1019.2
20260902025006 67 153 6.0 7.0 0.00 0.00 0.00 55 1019.1
20260902024505 67 177 5.0 8.0 0.00 0.00 0.00 55 1019.0
20260902024502 67 177 5.0 8.0 0.00 0.00 0.00 55 1004.3
20260902023504 67 154 5.0 9.0 0.00 0.00 0.00 52 1018.7
20260902023005 68 146 5.0 9.0 0.00 0.00 0.00 51 1018.6
20260902023003 68 146 5.0 9.0 0.00 0.00 0.00 51 1003.9
20260902022504 70 136 5.0 9.0 0.00 0.00 0.00 49 1018.6
20260902021504 71 174 6.0 12.0 0.00 0.00 0.00 45 1018.4
20260902021502 71 173 5.0 12.0 0.00 0.00 0.00 45 1003.7
20260902021005 71 173 8.0 12.0 0.00 0.00 0.00 44 1018.4
20260902020504 71 150 6.0 8.0 0.00 0.00 0.00 44 1018.2
20260902020006 71 157 5.0 7.0 0.00 0.00 0.00 44 1018.1
20260902015505 71 147 4.0 7.0 0.00 0.00 0.00 44 1018.1
20260902015005 71 148 4.0 5.0 0.00 0.00 0.00 43 1018.1
20260902014504 71 147 4.0 7.0 0.00 0.00 0.00 43 1018.0
20260902014502 71 147 3.0 7.0 0.00 0.00 0.00 43 1003.3
20260902014007 72 147 4.0 7.0 0.00 0.00 0.00 43 1018.0
20260902013504 72 162 4.0 6.0 0.00 0.00 0.00 42 1017.9
20260902013006 72 174 4.0 6.0 0.00 0.00 0.00 42 1018.0
20260902013003 72 174 4.0 6.0 0.00 0.00 0.00 42 1003.2
20260902012505 72 147 4.0 7.0 0.00 0.00 0.00 43 1018.0
20260902012006 73 147 5.0 7.0 0.00 0.00 0.00 42 1018.0
20260902011505 73 128 4.0 7.0 0.00 0.00 0.00 43 1018.0
20260902011503 73 128 4.0 7.0 0.00 0.00 0.00 43 1003.2
20260902011005 74 128 5.0 9.0 0.00 0.00 0.00 42 1018.0
20260902010505 75 110 6.0 9.0 0.00 0.00 0.00 40 1017.9
20260902010006 76 101 4.0 7.0 0.00 0.00 0.00 39 1017.8
20260902005505 76 109 5.0 8.0 0.00 0.00 0.00 38 1017.8
20260902005005 76 111 5.0 8.0 0.00 0.00 0.00 38 1017.9
20260902004505 76 69 3.0 9.0 0.00 0.00 0.00 40 1017.9
20260902004503 76 69 2.0 9.0 0.00 0.00 0.00 40 1003.2
20260902004007 76 59 5.0 10.0 0.00 0.00 0.00 40 1017.8
20260902003505 76 64 6.0 10.0 0.00 0.00 0.00 40 1017.7
20260902003007 76 61 5.0 11.0 0.00 0.00 0.00 41 1017.8
20260902003004 76 61 4.0 11.0 0.00 0.00 0.00 41 1003.2
20260902002505 76 75 7.0 11.0 0.00 0.00 0.00 40 1017.8
20260902001506 76 50 5.0 12.0 0.00 0.00 0.00 39 1003.2
20260902001005 77 49 9.0 13.0 0.00 0.00 0.00 37 1017.9
20260902000504 77 65 10.0 13.0 0.00 0.00 0.00 36 1017.8
20260902000006 76 46 6.0 10.0 0.00 0.00 0.00 36 1017.9
20260902000004 76 46 5.0 10.0 0.00 0.00 0.00 36 1003.3
20260901235506 77 56 5.0 11.0 0.00 0.00 0.00 37 1017.8
20260901235006 77 27 4.0 10.0 0.00 0.00 0.00 35 1017.8
20260901234507 77 38 4.0 7.0 0.00 0.00 0.00 35 1017.9
20260901234503 77 38 4.0 7.0 0.00 0.00 0.00 35 1003.3
20260901233504 78 37 3.0 5.0 0.00 0.00 0.00 33 1017.8
20260901233005 78 79 3.0 7.0 0.00 0.00 0.00 33 1017.8
20260901233002 78 79 2.0 7.0 0.00 0.00 0.00 33 1003.2
20260901232002 78 122 6.0 11.0 0.00 0.00 0.00 30 1017.8
20260901231558 78 123 4.0 10.0 0.00 0.00 0.00 32 1003.3
20260901231005 78 119 7.0 11.0 0.00 0.00 0.00 31 1017.9
20260901230006 79 134 8.0 12.0 0.00 0.00 0.00 30 1017.9
20260901230003 79 134 8.0 12.0 0.00 0.00 0.00 30 1003.4
20260901225004 79 120 8.0 14.0 0.00 0.00 0.00 30 1017.9
20260901224506 79 142 10.0 13.0 0.00 0.00 0.00 30 1017.9
20260901224503 79 142 9.0 13.0 0.00 0.00 0.00 30 1003.4
20260901224006 80 133 9.0 14.0 0.00 0.00 0.00 30 1017.9
20260901223505 81 133 7.0 14.0 0.00 0.00 0.00 29 1018.0